HODOYOSHI-3 (40015 NORAD) Tracking and Keplerian Element Data

This shows tracking and keplerian element data for the satellite.

Feedback or suggestion? Click here.




ElementValue
Catalog40015
NameHODOYOSHI-3
Epoch Orbit57374
Epoch Day35.05750002
Epoch Year2025
RAAN215.1821
Inclination97.5994
Eccentricity0.003372
Argument of Perigee192.2613
Mean Anonmoly167.7785
Mean Motion14.83190019
Decay Rate3.86E-05
L11 40015U 14033F 25035.05750002 .00003860 00000+0 47435-3 0 9997
L22 40015 97.5994 215.1821 0033720 192.2613 167.7785 14.83190019573747



Live tracking and technical data element details for HODOYOSHI-3 (NORAD 40015). HODOYOSHI-3 can be tracked NOW for your location showing map with azimuth and elevation plus other details from your city location.







IsCatalogInMostPopularTable: catalog: 40015, numindb: 397
Update: records affected: 1



GetName: 40015 HODOYOSHI-3

Hit Count: updated at: Fri, 16 May 2025 11:59:28 GMT